sat.trackr.live / text

‹ back to catalog

ZHONGXING-2D

NORAD 43920 · 2019-001A

PAYLOAD ACTIVE UNKNOWN

§ Identity

Operator
Country
PRC
Launch date
2019-01-10
Launch site
XICLF
Launch vehicle
Mass (kg)
RCS (m²)

Purposes: comms

External: N2YO · Heavens-Above · Gunter

§ Orbital elements

Epoch: 2026-09-15T22:55:29.986752Z

Period
1,436.10 min
Inclination
0.0531°
Eccentricity
0.0001284
Mean motion
1.00271590 rev/d
Perigee alt
35,781.2 km
Apogee alt
35,792.1 km
Semi-major
42,164.8 km
B*
0.0000e+0
RAAN
323.5774°
Arg perigee
348.5206°
Mean anomaly
156.7262°
Rev number
5,499

§ Raw data

ZHONGXING-2D1 43920U 19001A   26258.95520818 -.00000342  00000+0  00000+0 0  99982 43920   0.0531 323.5774 0001284 348.5206 156.7262  1.00271590 54994

JSON: /api/v1/satellites/43920 · /tle

For live sub-satellite position, see the globe view (requires WebGL).

§ Visibility from observer

Set your observer location to see the next 7 days of passes ≥ 10°. The values pass through the URL so the page stays shareable.

No JS? Fill the form by hand. The geolocation button needs JavaScript.